TimeEDT,TemperatureF,Dew PointF,Humidity,Sea Level PressureIn,VisibilityMPH,Wind Direction,Wind SpeedMPH,Gust SpeedMPH,PrecipitationIn,Events,Conditions,WindDirDegrees,DateUTC
12:53 AM,78.1,73.0,84,30.05,10.0,South,4.6,-,N/A,,Mostly Cloudy,170,2013-07-11 04:53:00
1:53 AM,78.1,71.1,79,30.03,10.0,South,3.5,-,N/A,,Mostly Cloudy,190,2013-07-11 05:53:00
2:53 AM,75.9,71.1,85,30.01,10.0,South,4.6,-,N/A,,Scattered Clouds,170,2013-07-11 06:53:00
3:53 AM,75.0,72.0,90,30.02,10.0,Calm,Calm,-,N/A,,Partly Cloudy,0,2013-07-11 07:53:00
4:53 AM,75.0,72.0,90,30.01,10.0,Calm,Calm,-,N/A,,Clear,0,2013-07-11 08:53:00
5:53 AM,75.0,72.0,90,30.01,10.0,South,3.5,-,N/A,,Scattered Clouds,170,2013-07-11 09:53:00
6:53 AM,73.9,72.0,93,30.03,10.0,Calm,Calm,-,N/A,,Scattered Clouds,0,2013-07-11 10:53:00
7:53 AM,77.0,73.0,88,30.03,10.0,South,4.6,-,N/A,,Scattered Clouds,180,2013-07-11 11:53:00
8:53 AM,81.0,73.9,79,30.03,10.0,SSW,5.8,-,N/A,,Scattered Clouds,200,2013-07-11 12:53:00
9:53 AM,84.0,72.0,67,30.02,9.0,South,9.2,-,N/A,,Scattered Clouds,170,2013-07-11 13:53:00
10:53 AM,84.9,70.0,61,30.02,10.0,SSW,8.1,-,N/A,,Scattered Clouds,200,2013-07-11 14:53:00
11:53 AM,87.1,70.0,57,30.02,10.0,Variable,5.8,-,N/A,,Scattered Clouds,0,2013-07-11 15:53:00
12:53 PM,89.1,70.0,53,30.00,10.0,SW,10.4,-,N/A,,Scattered Clouds,230,2013-07-11 16:53:00
1:53 PM,90.0,69.1,50,29.98,10.0,Variable,4.6,-,N/A,,Scattered Clouds,0,2013-07-11 17:53:00
2:53 PM,87.1,73.0,63,29.96,10.0,Variable,6.9,-,N/A,,Scattered Clouds,0,2013-07-11 18:53:00
3:53 PM,87.1,73.9,65,29.95,10.0,East,9.2,-,0.00,,Scattered Clouds,100,2013-07-11 19:53:00
4:53 PM,87.1,72.0,61,29.94,10.0,SE,11.5,19.6,N/A,,Scattered Clouds,130,2013-07-11 20:53:00
5:53 PM,86.0,71.6,62,29.94,10.0,SSE,8.1,19.6,N/A,,Scattered Clouds,150,2013-07-11 21:53:00
6:15 PM,86.0,73.4,66,29.94,9.0,SSE,11.5,19.6,N/A,Thunderstorm,Thunderstorm,150,2013-07-11 22:15:00
6:53 PM,79.0,73.0,82,29.95,8.0,SSW,3.5,-,0.00,Rain-Thunderstorm,Light Thunderstorms and Rain,200,2013-07-11 22:53:00
7:30 PM,78.8,73.4,83,29.96,10.0,WSW,5.8,-,0.00,,Mostly Cloudy,240,2013-07-11 23:30:00
7:53 PM,78.1,72.0,81,29.96,10.0,SW,3.5,-,0.00,,Mostly Cloudy,230,2013-07-11 23:53:00
8:53 PM,78.1,73.0,84,29.98,10.0,Calm,Calm,-,N/A,,Mostly Cloudy,0,2013-07-12 00:53:00
9:53 PM,77.0,71.1,82,29.97,10.0,South,4.6,-,N/A,,Mostly Cloudy,170,2013-07-12 01:53:00
10:53 PM,75.9,71.1,85,29.97,10.0,SSW,3.5,-,N/A,,Scattered Clouds,200,2013-07-12 02:53:00
11:53 PM,75.0,71.1,87,29.96,10.0,South,3.5,-,N/A,,Clear,180,2013-07-12 03:53:00